Change the Weather History Date:

Monday, March 4, 2013

  Actual Average Record
Temperature  
Mean Temperature 55 °F -  
Max Temperature 75 °F 62 °F 82 °F (2009)
Min Temperature 35 °F 30 °F 8 °F (2002)
Degree Days  
Heating Degree Days 10    
Growing Degree Days 5 (Base 50)    
Moisture  
Dew Point 9 °F    
Average Humidity 15    
Maximum Humidity 25    
Minimum Humidity 10    
Precipitation  
Precipitation 0.00 in - - ()
Sea Level Pressure  
Sea Level Pressure 29.99 in    
Wind  
Wind Speed 11 mph (SW)    
Max Wind Speed 31 mph    
Max Gust Speed 36 mph    
Visibility 10 miles    
Events      
Averages and records for this station are not official NWS values.
T = Trace of Precipitation, MM = Missing Value Source: NWS Daily Summary

Daily Weather History Graph

Daily Weather History Graph

Search for Another Location

Airport or City:

Trip Planner

Search our weather history database for the weather conditions in past years. The results will help you decide how hot, cold, wet, or windy it might be!

Date:

Astronomy

Mar. 04, 2013 Rise Set
Actual Time 7:18 AM CST 6:57 PM CST
Civil Twilight 6:54 AM CST 7:21 PM CST
Nautical Twilight 6:26 AM CST 7:49 PM CST
Astronomical Twilight 5:58 AM CST 8:16 PM CST
Moon 1:13 AM CST 11:58 AM CST
Length of Visible Light 12h 26m
Length of Day
11h 38m
Waning Gibbous, 52% of the Moon is Illuminated
Mar 4
Waning Gibbous
Mar 4
Last Quarter
Mar 11
New
Mar 19
First Quarter
Mar 27
Full

Hourly Weather History & Observations

Time (CST) Temp. Windchill Dew Point Humidity Pressure Visibility Wind Dir Wind Speed Gust Speed Precip Events Conditions
12:15 AM 39.2 °F 35.9 °F 1.4 °F 21% 30.04 in 10.0 mi NE 4.6 mph - N/A   Clear
12:35 AM 39.2 °F 35.9 °F 3.2 °F 22% 30.04 in 10.0 mi NNE 4.6 mph - N/A   Clear
12:55 AM 39.2 °F 35.9 °F 3.2 °F 22% 30.04 in 10.0 mi NE 4.6 mph - N/A   Clear
1:15 AM 37.4 °F 32.8 °F 1.4 °F 22% 30.03 in 10.0 mi NE 5.8 mph - N/A   Clear
1:35 AM 37.4 °F 34.9 °F 1.4 °F 22% 30.04 in 10.0 mi NE 3.5 mph - N/A   Clear
1:55 AM 35.6 °F 30.7 °F 1.4 °F 24% 30.04 in 10.0 mi ENE 5.8 mph - N/A   Clear
2:15 AM 35.6 °F 31.7 °F 1.4 °F 24% 30.03 in 10.0 mi ENE 4.6 mph - N/A   Clear
2:35 AM 37.4 °F 33.8 °F 1.4 °F 22% 30.02 in 10.0 mi East 4.6 mph - N/A   Clear
2:55 AM 35.6 °F 32.8 °F -0.4 °F 22% 30.02 in 10.0 mi ENE 3.5 mph - N/A   Clear
3:15 AM 35.6 °F 32.8 °F 1.4 °F 24% 30.01 in 10.0 mi East 3.5 mph - N/A   Clear
3:35 AM 35.6 °F 32.8 °F -0.4 °F 22% 30.00 in 10.0 mi SE 3.5 mph - N/A   Clear
3:55 AM 39.2 °F 37.0 °F 1.4 °F 21% 29.99 in 10.0 mi South 3.5 mph - N/A   Clear
4:15 AM 39.2 °F 35.9 °F -0.4 °F 19% 29.99 in 10.0 mi SSW 4.6 mph - N/A   Clear
4:35 AM 39.2 °F 35.9 °F 1.4 °F 21% 29.98 in 10.0 mi SSE 4.6 mph - N/A   Clear
4:55 AM 37.4 °F 34.9 °F -0.4 °F 20% 29.99 in 10.0 mi ESE 3.5 mph - N/A   Clear
5:15 AM 37.4 °F 34.9 °F 1.4 °F 22% 29.99 in 10.0 mi East 3.5 mph - N/A   Clear
5:55 AM 37.4 °F 34.9 °F 1.4 °F 22% 30.00 in 10.0 mi ESE 3.5 mph - N/A   Clear
6:15 AM 39.2 °F 37.0 °F 1.4 °F 21% 30.00 in 10.0 mi SE 3.5 mph - N/A   Clear
6:35 AM 44.6 °F 43.1 °F 3.2 °F 18% 30.00 in 10.0 mi South 3.5 mph - N/A   Clear
6:55 AM 44.6 °F 42.2 °F 1.4 °F 17% 30.01 in 10.0 mi SSE 4.6 mph - N/A   Clear
7:15 AM 44.6 °F 43.1 °F 1.4 °F 17% 30.01 in 10.0 mi South 3.5 mph - N/A   Clear
7:35 AM 46.4 °F 42.9 °F 1.4 °F 16% 30.01 in 10.0 mi South 6.9 mph - N/A   Clear
7:55 AM 44.6 °F 40.2 °F 1.4 °F 17% 30.02 in 10.0 mi South 8.1 mph - N/A   Clear
8:15 AM 46.4 °F 42.4 °F 3.2 °F 17% 30.02 in 10.0 mi SSE 8.1 mph - N/A   Clear
8:35 AM 50.0 °F - 5.0 °F 16% 30.02 in 10.0 mi SSE 6.9 mph - N/A   Clear
8:55 AM 53.6 °F - 6.8 °F 15% 30.02 in 10.0 mi South 10.4 mph - N/A   Clear
9:15 AM 64.4 °F - 10.4 °F 12% 30.03 in 10.0 mi West 18.4 mph - N/A   Clear
9:35 AM 66.2 °F - 10.4 °F 11% 30.03 in 10.0 mi WSW 23.0 mph - N/A   Clear
9:55 AM 66.2 °F - 10.4 °F 11% 30.03 in 10.0 mi West 21.9 mph 26.5 mph N/A   Clear
10:15 AM 69.8 °F - 10.4 °F 10% 30.02 in 10.0 mi WSW 24.2 mph 29.9 mph N/A   Clear
10:35 AM 69.8 °F - 12.2 °F 11% 30.02 in 10.0 mi West 25.3 mph 32.2 mph N/A   Clear
10:55 AM 69.8 °F - 12.2 °F 11% 30.02 in 10.0 mi West 26.5 mph 32.2 mph N/A   Clear
11:15 AM 69.8 °F - 12.2 °F 11% 30.02 in 10.0 mi West 26.5 mph 32.2 mph N/A   Clear
11:35 AM 71.6 °F - 12.2 °F 10% 30.01 in 10.0 mi West 28.8 mph 33.4 mph N/A   Clear
11:55 AM 71.6 °F - 12.2 °F 10% 30.01 in 10.0 mi West 31.1 mph 35.7 mph N/A   Clear
12:15 PM 71.6 °F - 14.0 °F 11% 30.00 in 10.0 mi WSW 28.8 mph 33.4 mph N/A   Clear
12:55 PM 71.6 °F - 12.2 °F 10% 29.98 in 10.0 mi WSW 28.8 mph - N/A   Clear
1:15 PM 71.6 °F - 12.2 °F 10% 29.98 in 10.0 mi WSW 24.2 mph 31.1 mph N/A   Clear
1:35 PM 71.6 °F - 12.2 °F 10% 29.97 in 10.0 mi WSW 28.8 mph 33.4 mph N/A   Clear
1:55 PM 73.4 °F - 14.0 °F 10% 29.95 in 10.0 mi WSW 27.6 mph 34.5 mph N/A   Clear
2:15 PM 75.2 °F - 15.8 °F 11% 29.94 in 10.0 mi West 28.8 mph 35.7 mph N/A   Clear
2:35 PM 73.4 °F - 15.8 °F 11% 29.95 in 10.0 mi WSW 27.6 mph 33.4 mph N/A   Clear
2:55 PM 75.2 °F - 15.8 °F 11% 29.93 in 10.0 mi WSW 26.5 mph 34.5 mph N/A   Clear
3:15 PM 73.4 °F - 15.8 °F 11% 29.92 in 10.0 mi WSW 29.9 mph 35.7 mph N/A   Clear
3:35 PM 73.4 °F - 15.8 °F 11% 29.92 in 10.0 mi WSW 21.9 mph 31.1 mph N/A   Clear
3:55 PM 73.4 °F - 15.8 °F 11% 29.92 in 10.0 mi WSW 23.0 mph 27.6 mph N/A   Clear
4:15 PM 73.4 °F - 15.8 °F 11% 29.91 in 10.0 mi WSW 24.2 mph 29.9 mph N/A   Clear
4:35 PM 73.4 °F - 15.8 °F 11% 29.90 in 10.0 mi WSW 20.7 mph 27.6 mph N/A   Clear
4:55 PM 71.6 °F - 14.0 °F 11% 29.90 in 10.0 mi WSW 18.4 mph 23.0 mph N/A   Clear
5:15 PM 73.4 °F - 15.8 °F 11% 29.89 in 10.0 mi WSW 21.9 mph 28.8 mph N/A   Clear
5:35 PM 73.4 °F - 15.8 °F 11% 29.89 in 10.0 mi WSW 20.7 mph 26.5 mph N/A   Clear
5:55 PM 73.4 °F - 15.8 °F 11% 29.90 in 10.0 mi WSW 23.0 mph 28.8 mph N/A   Clear
6:15 PM 71.6 °F - 14.0 °F 11% 29.91 in 10.0 mi SW 17.3 mph - N/A   Clear
6:35 PM 68.0 °F - 10.4 °F 11% 29.93 in 10.0 mi SW 12.7 mph - N/A   Clear
6:55 PM 64.4 °F - 8.6 °F 11% 29.93 in 10.0 mi SW 11.5 mph - N/A   Clear
7:15 PM 60.8 °F - 6.8 °F 12% 29.94 in 10.0 mi SW 13.8 mph - N/A   Clear
7:35 PM 60.8 °F - 5.0 °F 11% 29.95 in 10.0 mi SW 9.2 mph - N/A   Clear
7:55 PM 60.8 °F - 5.0 °F 11% 29.96 in 10.0 mi SSW 11.5 mph - N/A   Clear
8:35 PM 57.2 °F - 3.2 °F 11% 29.98 in 10.0 mi SSW 6.9 mph - N/A   Mostly Cloudy
8:55 PM 57.2 °F - 3.2 °F 11% 29.99 in 10.0 mi WSW 4.6 mph - N/A   Overcast
9:15 PM 55.4 °F - 1.4 °F 11% 30.00 in 10.0 mi WNW 4.6 mph - N/A   Overcast
9:35 PM 60.8 °F - 8.6 °F 13% 30.02 in 10.0 mi WNW 9.2 mph - N/A   Overcast
9:55 PM 64.4 °F - 21.2 °F 19% 30.03 in 8.0 mi West 13.8 mph - N/A   Overcast
10:15 PM 64.4 °F - 21.2 °F 19% 30.03 in 10.0 mi West 13.8 mph - N/A   Overcast
10:35 PM 60.8 °F - 19.4 °F 20% 30.05 in 10.0 mi WSW 8.1 mph - N/A   Overcast
10:55 PM 55.4 °F - 19.4 °F 25% 30.05 in 10.0 mi WSW 8.1 mph - N/A   Mostly Cloudy
11:15 PM 55.4 °F - 19.4 °F 25% 30.06 in 10.0 mi West 8.1 mph - N/A   Clear
11:35 PM 60.8 °F - 19.4 °F 20% 30.07 in 10.0 mi WNW 12.7 mph - N/A   Scattered Clouds
11:55 PM 60.8 °F - 19.4 °F 20% 30.08 in 10.0 mi WNW 11.5 mph - N/A   Overcast